Location: Helensbirgh
(56.0153°N, 4.7348°W)
Time: 22:16:23
(UTC+00:00)

N. Korean satellite - Pass Details

Date: 26 October 2019
Orbit: 456 x 506 km, 97.2° (Epoch: 21 November)

Event Time Altitude Azimuth Distance (km) Brightness Sun altitude
Rises 18:35:44 0° 181° (S) 2,481 10.3 -6.6°
Reaches altitude 10° 18:37:50 10° 188° (S) 1,617 9.5 -6.9°
Maximum altitude 18:41:09 43° 261° (W) 671 8.0 -7.4°
Drops below altitude 10° 18:44:34 10° 335° (NNW) 1,654 9.5 -7.8°
Sets 18:46:43 0° 342° (NNW) 2,547 10.3 -8.1°
